Temp
13 13 13 14 12 14 16 17 17 16 16 15 14 14 14 13 13 12 11 12 12 12 12 11 11 11 11 11 11 11 10 10 10 10 10 10 10 10 10 10 9 9 9 9 9 9 9 9 9
13 14 13 12 13 15 17 16 16 15 14 14 14 14 11 11 12 13 12 12 12 11 11 11 11 11 11 11 10 10 10 10 10 10 10 9 9 9 9 9 9 9 9 9 9 9 9 8 8
13 14 13 13 15 16 17 16 15 15 14 14 14 14 12 12 11 12 12 12 12 11 11 11 11 11 11 10 10 10 10 10 10 9 9 9 9 9 9 9 9 9 9 9 9 8 8 8 8
13 13 14 14 16 16 15 15 15 14 14 14 14 11 11 12 12 13 13 12 13 12 11 11 11 11 10 10 10 10 10 10 10 9 9 9 9 9 9 9 9 8 8 8 8 8 8 8 8
12 12 13 15 17 15 15 14 14 15 14 14 14 13 12 12 12 12 13 12 13 13 11 11 10 10 10 10 10 10 10 9 9 9 9 9 9 9 8 8 8 8 8 8 8 8 8 8 7
11 13 14 16 16 15 14 14 14 14 15 14 14 11 10 12 12 12 12 12 12 12 11 11 11 11 10 10 10 9 9 9 9 9 9 9 9 9 9 8 8 8 8 8 8 8 8 8 7
11 13 15 16 16 15 14 13 14 14 14 14 14 11 11 9 12 12 12 12 12 12 12 11 11 10 10 10 10 10 10 9 9 9 9 9 9 9 8 8 8 8 8 8 8 8 8 8 7
11 12 14 16 16 15 13 13 13 13 14 14 13 12 12 9 12 12 12 12 11 11 11 11 11 11 10 10 10 10 10 9 9 9 9 8 8 8 8 8 8 8 8 8 8 7 7 7 7
11 12 14 16 16 14 13 13 13 13 13 13 12 11 10 11 12 12 12 11 11 11 11 11 10 10 10 10 10 9 9 9 9 9 9 8 8 8 8 8 8 8 8 7 7 7 7 7 7
11 13 13 13 13 13 12 12 12 12 13 13 12 11 10 11 11 11 11 11 11 11 11 11 10 10 10 10 9 9 9 9 9 9 8 8 7 7 7 7 7 7 7 7 7 7 7 7 7
12 12 12 12 12 12 11 12 12 12 13 13 13 12 11 11 11 9 9 9 10 10 10 10 10 10 10 10 9 9 9 9 8 8 8 7 7 7 7 7 7 7 7 7 7 6 7 7 6
11 11 11 11 12 11 11 11 12 12 12 12 12 11 11 10 10 10 10 9 4 7 8 10 10 9 9 9 9 8 8 8 8 7 7 7 7 7 7 6 7 6 7 6 6 7 6 6 6
11 11 11 11 11 10 10 11 11 11 11 11 11 11 11 11 10 10 9 9 2 6 10 10 9 9 9 8 8 8 7 7 7 7 7 7 6 6 6 6 6 6 6 6 6 6 6 6 6
11 10 10 11 11 11 11 11 11 11 11 11 11 11 10 10 10 10 9 8 9 8 9 9 9 9 8 8 8 7 7 6 7 7 7 7 7 6 6 6 6 6 6 6 5 5 5 6 6
10 10 10 11 11 11 11 11 11 11 11 11 11 10 10 10 9 10 9 9 9 9 9 9 9 8 8 6 7 7 7 6 6 7 7 7 6 6 6 6 6 6 5 5 5 5 5 5 6
10 10 11 12 12 11 11 11 12 11 10 10 10 10 10 10 10 10 10 9 9 9 9 9 8 8 7 6 6 6 6 5 5 5 5 6 6 6 6 6 6 6 5 5 4 5 5 5 5
12 12 13 12 12 12 11 12 12 11 11 10 10 10 10 10 10 9 9 9 9 9 8 8 8 7 6 6 5 5 5 5 5 5 5 5 5 5 5 5 5 4 4 4 4 4 4 5 5
12 11 12 12 12 11 11 11 12 12 10 10 10 9 9 9 9 9 9 8 8 8 8 7 7 7 6 5 5 5 5 5 4 4 3 3 3 4 2 3 3 3 3 3 4 4 4 4 4
10 10 10 11 11 11 11 11 12 12 10 10 9 8 9 9 9 9 9 8 8 8 7 7 7 6 6 5 5 4 4 4 4 3 2 0 1 1 2 1 1 0 1 2 3 3 3 3 3
9 9 10 10 11 11 10 11 11 12 11 10 9 8 8 8 8 8 8 8 7 7 7 6 6 6 6 5 4 4 3 3 3 2 2 1 1 1 0 0 -0 -1 -1 -1 -0 1 1 2 3
9 9 9 9 10 10 10 11 11 10 7 8 8 7 8 8 8 8 8 7 7 6 6 6 5 5 5 4 3 2 2 1 1 1 1 1 -0 -0 -0 -1 -1 -0 0 -0 0 0 1 1 -0
9 9 9 10 9 10 11 12 11 10 8 8 6 6 6 7 7 7 7 6 6 6 6 5 5 4 4 4 2 1 -0 -0 -0 -0 -0 -1 -2 -1 -1 -1 -1 -1 -1 -1 -1 -2 -1 -3 -2
9 9 9 9 9 9 10 11 11 9 8 6 6 5 6 5 6 5 5 5 5 5 5 5 4 3 3 3 2 -0 -1 -1 -1 -1 -1 -2 -3 -3 -2 -1 -1 -2 -3 -3 -3 -2 -2 -3 -3
8 8 8 9 9 10 10 9 9 8 8 6 5 5 4 3 4 4 4 4 4 4 5 4 3 3 2 1 1 -1 -2 -2 -2 -2 -3 -3 -3 -3 -3 -3 -3 -3 -3 -3 -4 -4 -3 -2 -1
8 8 9 9 10 10 9 9 4 5 6 6 5 5 4 3 2 2 2 3 4 3 3 3 2 1 1 0 -1 -1 -2 -2 -3 -3 -4 -3 -3 -3 -3 -3 -4 -4 -4 -4 -4 -3 -3 -3 -2
8 8 9 8 9 10 10 8 2 4 5 5 5 4 3 2 2 1 2 3 3 2 1 0 0 1 -1 -1 -1 -2 -2 -3 -4 -4 -4 -4 -3 -3 -3 -3 -3 -3 -4 -4 -4 -3 -3 -3 -3
7 8 7 8 8 8 9 6 5 3 4 3 4 2 2 2 1 3 3 3 2 1 1 0 -1 -0 -2 -3 -2 -2 -3 -4 -4 -4 -4 -4 -4 -4 -4 -4 -4 -4 -5 -5 -4 -4 -4 -4 -4
7 7 7 8 6 6 9 8 4 4 4 4 3 3 2 2 3 3 3 2 2 1 1 0 -1 -1 -3 -3 -3 -4 -5 -4 -5 -5 -5 -5 -5 -4 -4 -5 -5 -5 -5 -6 -5 -4 -4 -5 -4
6 6 6 6 6 5 5 7 6 5 4 3 3 2 2 2 2 2 2 2 1 1 1 -0 -1 -2 -3 -4 -5 -5 -4 -5 -5 -6 -5 -5 -5 -5 -5 -5 -5 -6 -6 -6 -7 -7 -6 -5 -6
5 6 6 5 5 4 4 3 4 4 4 4 3 2 2 2 1 1 1 1 1 0 -1 -1 -2 -2 -3 -3 -4 -5 -5 -5 -5 -5 -5 -6 -6 -7 -7 -7 -7 -7 -8 -8 -8 -8 -9 -9 -8
Height
3170 3171 3174 3175 3181 3175 3168 3169 3170 3172 3175 3175 3175 3176 3176 3173 3176 3181 3179 3177 3180 3182 3184 3185 3185 3185 3186 3187 3188 3189 3189 3190 3191 3192 3193 3194 3195 3196 3197 3197 3198 3198 3198 3198 3199 3198 3198 3197 3197
3171 3173 3174 3177 3178 3175 3170 3170 3171 3173 3174 3176 3177 3176 3171 3176 3176 3178 3179 3178 3178 3181 3184 3184 3184 3185 3186 3187 3188 3189 3191 3192 3192 3193 3193 3194 3195 3196 3197 3197 3197 3198 3198 3198 3198 3198 3197 3198 3198
3173 3175 3175 3178 3173 3174 3170 3172 3171 3173 3176 3177 3178 3178 3180 3179 3178 3176 3177 3176 3178 3179 3181 3182 3183 3185 3185 3186 3187 3188 3189 3191 3192 3193 3193 3193 3194 3194 3195 3195 3196 3196 3197 3196 3197 3197 3197 3197 3197
3173 3177 3177 3175 3172 3173 3174 3174 3174 3176 3177 3178 3178 3177 3181 3181 3178 3177 3177 3176 3177 3178 3180 3181 3182 3184 3185 3186 3187 3188 3188 3190 3191 3191 3192 3192 3192 3193 3194 3194 3195 3195 3195 3195 3195 3196 3196 3196 3196
3175 3177 3177 3173 3172 3173 3176 3175 3175 3177 3177 3178 3177 3174 3177 3179 3178 3177 3177 3176 3177 3179 3180 3181 3183 3183 3184 3185 3186 3187 3188 3188 3190 3191 3191 3191 3191 3192 3192 3192 3193 3193 3194 3194 3194 3194 3194 3194 3195
3176 3178 3175 3170 3170 3174 3176 3176 3177 3177 3178 3178 3179 3174 3168 3179 3179 3176 3175 3174 3174 3176 3178 3180 3183 3184 3185 3185 3185 3186 3186 3187 3188 3188 3189 3190 3191 3191 3191 3191 3191 3191 3191 3192 3192 3192 3192 3192 3192
3178 3179 3174 3170 3170 3173 3174 3175 3177 3178 3178 3179 3179 3172 3174 3183 3179 3174 3173 3174 3175 3178 3178 3178 3179 3182 3184 3185 3185 3186 3188 3188 3188 3189 3189 3189 3190 3189 3189 3189 3189 3188 3189 3189 3190 3190 3190 3190 3190
3179 3179 3175 3172 3171 3173 3171 3174 3175 3177 3178 3176 3177 3172 3164 3173 3175 3172 3173 3175 3177 3178 3180 3181 3179 3178 3182 3184 3185 3185 3186 3186 3187 3187 3188 3189 3188 3189 3188 3188 3187 3187 3187 3186 3187 3187 3187 3188 3188
3179 3178 3175 3174 3173 3174 3173 3175 3175 3175 3175 3176 3177 3173 3170 3172 3170 3171 3172 3173 3173 3174 3175 3177 3180 3178 3177 3181 3182 3183 3184 3184 3184 3184 3184 3185 3185 3185 3184 3185 3184 3183 3183 3184 3183 3183 3183 3184 3184
3179 3178 3176 3173 3171 3172 3173 3175 3175 3176 3176 3176 3176 3175 3173 3170 3169 3170 3170 3167 3166 3168 3170 3173 3175 3178 3174 3177 3180 3181 3180 3181 3181 3182 3183 3183 3183 3182 3182 3181 3181 3179 3178 3178 3178 3178 3178 3179 3179
3177 3176 3175 3175 3171 3171 3172 3174 3176 3175 3175 3176 3175 3173 3173 3169 3169 3174 3168 3165 3158 3160 3169 3166 3172 3173 3171 3173 3176 3177 3177 3179 3179 3178 3179 3179 3179 3179 3178 3177 3177 3175 3173 3174 3173 3174 3174 3172 3173
3175 3175 3173 3174 3172 3169 3170 3173 3173 3173 3172 3173 3173 3172 3172 3170 3171 3176 3176 3145 3083 3148 3163 3165 3170 3172 3168 3169 3172 3173 3173 3174 3173 3174 3174 3174 3174 3174 3173 3172 3169 3170 3169 3170 3168 3169 3168 3168 3167
3174 3172 3173 3171 3170 3167 3167 3168 3169 3169 3170 3171 3170 3169 3171 3172 3171 3176 3159 3153 3129 3164 3165 3166 3169 3169 3164 3166 3170 3171 3171 3169 3169 3168 3169 3168 3168 3167 3166 3166 3165 3164 3164 3163 3163 3163 3162 3162 3162
3171 3170 3168 3169 3168 3167 3166 3165 3165 3166 3167 3168 3168 3169 3168 3169 3169 3168 3161 3154 3160 3165 3162 3161 3166 3162 3159 3163 3166 3166 3166 3165 3163 3162 3163 3162 3162 3161 3159 3159 3159 3158 3158 3158 3157 3156 3156 3156 3155
3167 3166 3164 3164 3165 3166 3163 3161 3160 3163 3162 3164 3164 3165 3165 3163 3161 3159 3159 3159 3153 3158 3159 3160 3161 3155 3157 3163 3162 3162 3161 3162 3160 3158 3157 3156 3155 3155 3154 3153 3151 3152 3151 3149 3149 3148 3148 3149 3148
3164 3164 3161 3158 3160 3162 3163 3159 3158 3159 3160 3161 3160 3159 3158 3159 3157 3157 3157 3157 3154 3154 3153 3151 3149 3153 3156 3158 3158 3157 3156 3156 3155 3154 3153 3153 3151 3149 3147 3146 3145 3143 3142 3141 3141 3140 3139 3140 3140
3162 3160 3159 3158 3158 3160 3160 3159 3159 3156 3158 3158 3157 3156 3154 3154 3154 3154 3153 3153 3153 3150 3149 3148 3149 3151 3153 3154 3151 3152 3152 3151 3150 3149 3148 3147 3146 3144 3143 3141 3139 3137 3135 3134 3133 3133 3132 3132 3131
3158 3157 3157 3158 3159 3157 3158 3158 3158 3156 3152 3154 3154 3151 3151 3151 3151 3150 3150 3150 3151 3150 3149 3149 3147 3146 3146 3145 3146 3144 3142 3143 3143 3142 3141 3141 3140 3138 3136 3133 3132 3132 3130 3127 3126 3125 3124 3123 3121
3157 3158 3158 3158 3158 3155 3155 3156 3155 3156 3149 3150 3152 3149 3149 3148 3148 3148 3148 3148 3149 3148 3147 3145 3144 3143 3141 3139 3137 3137 3136 3135 3133 3133 3133 3131 3128 3127 3126 3125 3121 3121 3121 3120 3116 3114 3116 3115 3111
3155 3157 3156 3155 3155 3152 3152 3152 3152 3152 3147 3146 3149 3151 3148 3147 3147 3147 3147 3146 3145 3144 3143 3142 3140 3138 3136 3134 3132 3130 3129 3128 3128 3127 3126 3122 3121 3118 3115 3112 3111 3111 3109 3108 3106 3106 3107 3106 3103
3155 3154 3153 3154 3150 3150 3150 3146 3145 3143 3148 3149 3149 3147 3147 3148 3147 3146 3145 3145 3143 3142 3140 3137 3137 3134 3131 3127 3125 3124 3122 3122 3121 3119 3118 3117 3115 3114 3109 3105 3103 3101 3098 3096 3096 3096 3094 3093 3095
3151 3150 3150 3149 3149 3146 3146 3138 3137 3136 3145 3146 3148 3148 3147 3147 3145 3144 3143 3142 3142 3139 3137 3133 3131 3129 3125 3122 3119 3118 3117 3116 3115 3114 3112 3110 3107 3103 3100 3097 3094 3089 3087 3088 3088 3083 3084 3082 3084
3148 3148 3146 3146 3145 3143 3141 3138 3134 3133 3139 3142 3147 3147 3146 3146 3143 3142 3140 3137 3135 3133 3132 3129 3126 3123 3120 3117 3115 3113 3112 3111 3110 3109 3107 3105 3101 3098 3094 3089 3086 3082 3081 3080 3079 3078 3077 3075 3075
3146 3146 3145 3143 3141 3138 3136 3137 3137 3132 3135 3141 3143 3148 3146 3144 3140 3140 3136 3134 3131 3127 3124 3125 3122 3117 3115 3113 3110 3108 3107 3106 3105 3103 3101 3098 3095 3091 3087 3084 3081 3078 3077 3075 3073 3070 3069 3069 3067
3144 3145 3143 3139 3133 3131 3135 3135 3139 3139 3135 3136 3142 3145 3143 3141 3138 3136 3133 3132 3130 3127 3119 3115 3115 3111 3104 3108 3104 3102 3101 3100 3099 3097 3093 3091 3088 3084 3080 3077 3075 3073 3072 3069 3066 3064 3063 3060 3058
3140 3141 3142 3139 3135 3131 3132 3132 3141 3141 3138 3142 3142 3144 3144 3142 3138 3134 3132 3129 3127 3123 3118 3110 3105 3108 3099 3097 3100 3097 3095 3094 3093 3089 3086 3083 3079 3076 3074 3071 3069 3066 3063 3061 3059 3056 3054 3052 3049
3140 3140 3140 3140 3139 3136 3133 3133 3137 3139 3139 3140 3141 3141 3141 3138 3134 3131 3129 3126 3122 3120 3117 3110 3105 3103 3098 3092 3093 3091 3088 3088 3085 3083 3079 3075 3071 3068 3065 3063 3060 3057 3054 3051 3048 3045 3044 3041 3040
3140 3141 3140 3139 3139 3138 3131 3134 3134 3137 3138 3137 3136 3138 3137 3132 3129 3127 3125 3122 3119 3116 3113 3108 3104 3100 3097 3092 3087 3087 3084 3081 3078 3074 3069 3066 3063 3060 3056 3053 3050 3046 3043 3040 3036 3033 3032 3029 3028
3140 3138 3139 3141 3141 3140 3139 3137 3135 3135 3135 3134 3135 3134 3131 3127 3125 3122 3121 3118 3115 3111 3106 3104 3099 3095 3092 3088 3085 3082 3079 3076 3071 3067 3063 3059 3055 3051 3047 3043 3040 3036 3032 3028 3025 3021 3018 3016 3014
3136 3137 3137 3138 3140 3140 3141 3138 3135 3135 3135 3133 3131 3129 3126 3123 3118 3116 3114 3111 3108 3105 3100 3097 3094 3091 3088 3084 3079 3075 3071 3068 3064 3059 3055 3050 3045 3041 3036 3031 3027 3024 3021 3018 3015 3011 3008 3004 3000
Wind_Speed
10 12 12 13 6 10 19 4 6 1 2 1 3 9 12 8 8 8 14 6 2 5 7 6 4 8 9 9 9 9 9 8 7 5 5 4 3 2 1 1 2 3 4 4 4 4 4 3 3
10 14 12 3 13 15 5 5 7 9 4 4 3 5 7 16 10 8 4 5 1 5 7 4 5 7 7 7 7 6 5 4 3 2 1 1 2 3 3 4 5 5 5 5 6 6 7 7 6
11 14 8 10 17 15 2 7 7 3 1 1 1 4 13 6 10 4 1 3 3 6 9 6 7 7 6 6 6 5 5 3 2 1 1 2 2 3 4 5 5 5 6 6 6 7 7 7 6
16 10 4 6 12 6 9 2 2 0 2 3 8 8 7 2 4 1 2 4 3 5 8 8 9 8 8 7 7 6 6 4 3 3 3 3 4 5 6 6 7 6 6 7 7 7 8 8 8
10 7 13 20 4 3 2 3 3 3 4 3 9 8 9 7 5 2 2 5 5 2 7 9 10 9 9 9 8 7 6 5 5 5 5 5 6 7 7 7 8 8 8 8 8 8 8 9 9
3 4 15 18 6 1 3 3 3 5 4 6 8 9 17 2 7 3 3 3 3 3 7 8 9 8 8 8 8 8 8 8 8 7 7 7 8 9 9 10 10 11 11 11 11 11 10 10 11
5 10 21 20 9 4 4 3 4 7 8 5 4 9 4 6 6 5 6 6 3 3 10 10 10 10 9 10 10 9 9 10 10 10 11 11 11 12 13 13 14 15 15 15 15 15 14 14 13
8 9 13 14 3 2 8 3 9 7 9 13 8 9 24 28 8 7 9 6 6 7 8 11 11 11 12 12 12 12 12 13 13 14 14 15 15 16 16 17 18 19 19 20 20 19 19 19 18
7 12 18 7 6 5 2 1 4 9 8 8 5 6 5 11 9 10 11 11 12 12 9 11 13 12 13 14 14 15 16 17 17 18 18 19 19 20 21 20 21 20 22 22 23 23 22 22 22
7 13 11 5 2 1 4 4 7 5 7 10 13 16 7 17 15 13 14 17 18 16 13 12 13 12 11 12 14 16 18 20 20 20 20 20 21 23 24 24 23 22 24 23 23 23 24 25 23
6 14 16 8 9 13 5 6 7 9 9 6 10 11 8 20 17 8 12 22 28 18 15 13 15 15 14 15 16 17 20 21 22 22 22 22 23 24 25 25 24 24 23 23 24 22 23 26 25
11 9 13 11 12 13 12 11 13 11 13 8 10 11 6 11 12 12 14 25 39 12 16 15 15 16 17 17 19 20 21 22 23 24 25 25 26 26 27 28 30 30 28 27 26 26 31 31 30
13 11 12 12 14 14 11 15 16 18 15 15 13 17 21 10 15 13 25 31 20 11 14 13 17 17 18 20 22 24 25 26 26 26 26 28 30 31 30 29 30 31 29 28 31 30 32 31 31
14 13 15 16 16 15 16 16 16 15 14 17 16 15 15 12 17 22 29 32 27 24 22 21 22 20 22 25 27 28 29 30 30 29 28 30 32 34 32 33 31 33 33 32 33 35 34 33 30
13 16 16 16 14 12 17 18 17 11 17 20 18 16 18 20 23 32 31 32 35 26 22 21 21 21 22 24 26 28 30 33 34 33 33 34 35 38 38 38 38 35 36 36 37 37 38 34 29
17 17 20 11 16 9 11 15 11 9 2 6 11 14 16 19 28 31 33 32 31 29 22 21 27 26 24 27 27 30 27 26 28 29 31 33 35 35 37 36 36 36 37 36 36 36 33 31 33
16 20 14 7 9 6 9 10 7 12 8 8 14 15 17 17 18 18 20 24 26 26 23 25 30 33 38 42 34 40 38 35 34 34 32 31 33 34 33 33 32 32 33 34 34 32 34 35 35
16 14 10 8 3 5 10 13 15 15 11 9 11 20 15 15 11 11 14 16 17 19 21 25 27 32 39 32 37 37 33 41 43 43 43 36 32 31 29 31 33 34 34 34 38 35 36 35 37
11 13 14 16 17 19 14 16 16 14 14 14 11 14 15 10 10 11 14 16 16 19 23 26 29 30 33 32 32 30 31 32 33 37 37 36 45 46 50 51 52 47 47 46 39 37 39 38 40
13 14 17 17 16 11 13 18 19 16 17 9 8 11 9 3 3 5 8 10 14 17 19 22 24 27 30 31 34 34 33 33 31 32 29 33 35 40 43 46 42 37 37 37 39 39 43 47 47
15 17 17 18 21 16 18 25 27 17 7 9 7 10 9 7 7 8 11 13 16 19 24 28 30 31 31 32 31 31 31 31 29 29 32 37 40 36 37 42 44 50 50 53 53 52 53 57 55
18 15 17 18 16 21 18 23 16 18 21 6 4 5 5 9 10 14 15 15 20 26 30 37 36 30 31 32 31 29 28 29 31 31 33 40 41 40 38 35 35 34 42 50 46 37 43 34 30
15 13 12 14 18 20 21 20 17 26 17 22 6 5 9 9 10 13 18 23 28 31 33 40 34 33 31 31 31 28 29 32 34 34 39 40 41 40 38 34 33 28 25 27 27 29 31 32 33
15 14 13 16 21 18 18 9 23 16 15 17 18 6 8 6 9 16 19 23 31 39 44 35 32 34 30 30 29 29 30 33 36 39 39 40 42 39 40 35 34 30 27 28 30 31 31 34 35
12 10 13 11 10 12 6 8 10 5 16 9 14 10 9 7 13 14 19 27 37 39 39 39 34 33 37 26 28 30 32 34 36 38 42 42 42 42 37 33 31 31 32 32 32 34 37 37 38
4 12 11 6 9 15 12 5 8 7 12 16 11 4 1 4 6 8 21 33 39 31 32 37 39 32 37 37 28 31 32 34 37 41 43 45 43 35 36 34 31 33 34 34 35 36 37 36 37
5 4 7 9 14 14 15 9 4 4 9 7 6 4 7 6 11 20 29 38 32 28 29 32 34 34 34 38 33 33 34 32 39 42 44 44 40 40 41 36 35 36 38 38 37 37 36 37 37
4 7 6 6 3 4 8 9 3 3 5 11 9 8 10 18 28 31 32 34 31 31 30 28 28 29 29 31 36 34 33 35 36 38 39 38 38 40 40 40 40 41 41 41 41 41 38 39 39
4 2 3 5 5 2 4 4 15 6 6 4 4 7 16 26 30 31 32 33 30 29 32 26 25 25 24 27 29 31 30 30 37 33 37 42 44 45 46 46 46 47 46 44 43 43 44 45 43
5 8 7 1 3 5 4 9 3 5 5 9 11 14 23 29 30 31 34 32 32 29 30 28 25 25 26 28 29 31 35 37 38 41 46 47 49 49 49 51 50 49 47 45 42 40 40 43 45
Wind_Direction
142 144 147 149 222 244 253 111 54 111 182 312 359 48 54 88 72 93 180 217 285 222 195 175 216 189 172 164 159 156 151 150 145 141 140 136 126 103 66 2 346 338 344 340 333 334 330 338 336
138 147 146 124 250 276 73 83 101 88 83 122 48 303 53 80 53 83 165 235 245 202 196 205 211 201 189 177 170 162 155 154 146 148 127 26 5 341 326 329 330 330 324 326 332 333 334 330 325
143 156 138 243 249 256 88 116 78 18 196 186 222 60 79 75 102 319 69 287 289 196 195 217 198 196 208 194 187 184 173 183 182 273 311 316 318 315 314 311 308 315 316 323 326 322 320 315 317
147 154 317 250 262 82 46 94 82 255 223 230 265 193 51 205 291 322 241 255 264 221 191 208 197 204 203 196 192 194 188 199 217 228 249 270 284 292 296 301 306 308 311 312 314 313 314 314 310
134 120 259 257 254 20 339 296 273 227 219 263 275 282 277 226 258 252 187 258 249 359 198 210 206 205 194 197 201 204 206 217 232 247 256 268 279 285 289 293 296 298 298 301 303 303 304 306 307
98 288 270 266 163 147 272 353 269 218 265 257 314 308 139 221 258 232 198 262 240 303 213 218 219 221 220 216 220 222 224 231 238 247 254 263 275 282 282 285 289 292 293 292 290 290 290 291 295
288 283 276 300 130 161 212 195 252 259 261 261 263 190 178 282 245 225 232 256 290 311 245 224 222 229 232 234 240 248 256 261 264 267 269 270 273 273 277 282 283 282 284 286 287 290 291 289 287
245 289 275 291 288 172 228 181 247 219 276 248 227 308 307 183 232 238 246 254 277 276 256 247 238 233 245 252 256 257 259 264 269 272 274 275 274 277 279 280 282 286 290 291 291 289 289 289 288
279 277 282 307 244 78 332 168 259 238 229 291 253 290 119 211 245 257 244 251 256 261 241 239 250 252 257 262 266 264 266 264 264 264 266 269 273 273 275 277 281 284 285 287 286 286 284 284 286
267 274 327 320 154 237 283 301 288 289 249 269 264 268 272 264 274 269 261 255 250 239 234 234 244 257 263 260 259 269 267 267 273 280 281 282 280 280 278 278 275 280 280 281 281 282 287 288 288
274 268 310 311 277 233 288 260 282 273 264 277 249 253 235 269 268 237 269 278 252 219 235 233 247 253 258 262 269 271 273 278 276 276 276 278 277 278 277 278 282 280 278 275 278 283 285 283 286
284 286 284 282 284 265 263 266 255 254 236 279 249 228 220 261 263 267 275 230 82 181 221 244 255 258 266 270 270 273 272 277 276 276 274 274 276 271 271 272 271 274 274 279 275 274 277 283 284
284 283 281 274 273 277 270 255 261 260 259 261 269 268 262 253 271 259 257 270 271 269 284 270 267 269 273 275 275 275 277 277 273 273 275 276 274 272 272 271 273 274 274 272 276 276 277 278 272
264 276 273 275 275 273 270 270 264 263 262 252 253 256 264 259 251 246 252 266 283 287 287 282 274 275 281 278 275 275 275 276 279 277 274 270 268 268 270 271 270 273 276 274 271 277 277 276 269
272 284 282 274 270 258 259 266 245 237 241 247 258 245 240 233 229 245 252 269 285 296 302 298 293 293 288 284 282 281 280 279 276 276 272 270 268 269 269 269 271 273 272 268 268 271 274 268 261
281 278 281 292 213 259 288 305 189 215 210 221 234 258 262 264 255 262 272 277 279 288 291 299 309 299 290 291 304 301 294 293 291 290 288 285 282 278 274 273 272 270 269 268 268 266 261 256 263
277 259 280 236 208 243 268 290 204 220 230 256 272 266 261 268 267 273 270 274 284 293 293 285 282 278 288 286 291 304 296 296 298 297 297 295 293 289 283 281 276 271 269 269 265 263 264 265 267
321 328 318 314 217 259 255 270 282 260 217 223 255 275 280 266 279 273 271 275 280 286 284 289 287 285 285 284 273 276 285 287 294 294 294 294 288 281 283 283 283 276 267 263 261 267 268 271 271
308 304 295 284 288 288 261 274 269 269 242 266 210 258 279 283 283 285 288 295 303 297 294 292 291 292 290 288 286 287 288 283 281 280 282 284 280 272 275 275 267 273 272 270 269 262 269 270 277
300 292 287 287 283 280 272 271 270 270 246 193 199 218 258 273 268 282 289 295 303 311 316 319 318 313 308 302 296 293 292 290 289 286 283 289 298 301 290 282 279 278 275 271 270 272 270 271 280
275 278 283 279 281 279 275 273 267 248 236 222 160 206 240 262 272 283 283 291 302 325 335 332 326 316 311 307 303 296 293 294 292 280 280 290 302 299 307 285 277 276 272 270 265 272 275 270 279
278 281 274 268 274 275 281 292 275 261 206 217 177 163 218 256 282 291 289 293 307 318 326 331 325 317 313 306 302 300 296 289 282 276 286 296 305 312 315 303 296 296 284 281 282 291 280 275 274
278 286 280 272 272 283 275 274 292 177 190 198 186 202 280 240 274 292 312 321 326 326 325 327 323 320 315 308 303 298 290 286 284 283 291 300 303 310 312 316 307 303 302 303 301 296 297 295 292
277 271 281 272 263 259 289 333 306 198 204 187 224 191 204 244 294 316 325 333 336 331 322 324 321 320 311 306 298 292 290 286 286 290 293 297 303 316 313 311 308 299 293 289 285 287 290 293 288
257 269 284 287 258 243 273 330 67 324 263 237 190 202 210 333 341 352 331 336 332 326 321 320 327 325 313 312 296 290 288 288 292 294 297 302 306 316 311 306 298 289 288 294 296 294 290 286 283
321 246 262 304 309 317 325 63 53 42 100 130 149 188 75 341 332 322 330 329 324 322 331 325 322 325 313 312 304 294 289 291 295 295 300 308 312 309 310 308 304 299 296 294 291 287 285 283 281
322 281 285 297 299 293 270 81 263 206 203 233 202 187 289 307 299 306 317 318 315 324 331 319 311 317 310 307 310 303 299 295 293 300 304 306 307 305 306 306 304 301 298 297 294 291 289 285 282
251 309 313 303 315 315 326 341 53 249 260 249 198 231 288 282 291 301 307 314 314 318 322 318 306 307 300 297 302 312 304 304 306 307 305 304 303 303 302 301 300 298 296 295 294 290 286 284 282
265 248 321 299 334 293 325 297 350 310 341 330 321 238 265 277 298 302 313 317 316 322 322 317 304 301 298 294 297 295 303 300 303 305 303 301 302 302 302 300 299 298 298 297 294 293 289 285 284
266 284 292 336 283 286 279 273 217 339 297 245 228 256 284 292 298 311 319 322 321 320 319 317 310 308 306 300 301 301 302 305 305 302 303 303 303 302 299 297 297 296 294 293 293 295 295 296 292